Darstellungsparameter: Aktuell verwendete Einstellungen:
Skalierung der Graphiken ... ?
xyx+y,   Skalierungsfaktor:      Skalierung: Modus: x, Faktor: 1
Darstellungszeitraum ... ?
Vom - - bis: - -   Zeitraum: 25.01.2019 - 27.01.2019
Min/Max/Avg-Anzeige ... ?
Zeige MMA aktuell
Zeige MMA Monat
Zeige MMA alles
Zeige --A aktuell
Zeige --A Monat
Zeige --A alles
Keine MMA-Anzeige
MMA:
Average (ber die Originaldaten)
MMA-Basis: 25.01.2019 - 27.01.2019
Quicknavigation für Darstellung... ?
Tage:      1T, 2T, 3T, 5T -1T -2T -3T -5T +1T +2T +3T +5T
Wochen: 1W, 2W, 3W -1W -2W -3W +1W +2W +3W
Monate: 1M, 3M, 6M -1M -3M -6M +1M +3M +6M
Jahre:    1J, 3J, 5J, 10J -1J -3J -5J -10J +1J +3J +5J +10J
Nutze für die Darstellung ... ?
Originaldaten oder Mittelwerte auf ...
Stundenbasis Tagesbasis Wochenbasis
Monatsbasis Jahresbasis      Datenbasis: Original-Daten
Darstellen als:
Statistik (Auto) Statistik J:M      Darstellung:
Zur Graphik,    zurück zur Übersicht aller Sensoren.
 
Tabellarische Datenbersicht: ?
 
Sensor: Nr:Datum:Temp:Abs-Feuchte:Windchill:Wind:
Aussen-T/F 1 25-01-2019 00:00:00 -2.4 C 3.57 g/m*3 -2.4 C 0 km/h
2 25-01-2019 00:05:00 -2.4 C 3.57 g/m*3 -2.4 C 0 km/h
3 25-01-2019 00:10:00 -2.4 C 3.57 g/m*3 -2.4 C 0 km/h
4 25-01-2019 00:15:00 -2.4 C 3.57 g/m*3 -2.4 C 0 km/h
5 25-01-2019 00:20:00 -2.4 C 3.57 g/m*3 -2.4 C 0 km/h
6 25-01-2019 00:25:00 -2.4 C 3.57 g/m*3 -2.4 C 0 km/h
7 25-01-2019 00:30:00 -2.4 C 3.57 g/m*3 -2.4 C 0 km/h
8 25-01-2019 00:35:00 -2.4 C 3.52 g/m*3 -2.4 C 0 km/h
9 25-01-2019 00:40:00 -2.4 C 3.52 g/m*3 -2.4 C 0 km/h
10 25-01-2019 00:45:00 -2.3 C 3.55 g/m*3 -2.3 C 0 km/h
11 25-01-2019 00:50:00 -2.3 C 3.55 g/m*3 -2.3 C 0 km/h
12 25-01-2019 00:55:00 -2.3 C 3.55 g/m*3 -2.3 C 1.6 km/h
13 25-01-2019 01:00:00 -2.3 C 3.55 g/m*3 -2.3 C 3.2 km/h
14 25-01-2019 01:05:00 -2.3 C 3.55 g/m*3 -2.3 C 0 km/h
15 25-01-2019 01:10:00 -2.2 C 3.57 g/m*3 -2.2 C 1.6 km/h
16 25-01-2019 01:15:00 -2.2 C 3.57 g/m*3 -2.2 C 4.8 km/h
17 25-01-2019 01:20:00 -2.2 C 3.57 g/m*3 -2.2 C 4.8 km/h
18 25-01-2019 01:25:00 -2.2 C 3.57 g/m*3 -2.2 C 1.6 km/h
19 25-01-2019 01:30:00 -2.1 C 3.6 g/m*3 -2.1 C 0 km/h
20 25-01-2019 01:35:00 -2.1 C 3.6 g/m*3 -2.1 C 1.6 km/h
21 25-01-2019 01:40:00 -2.1 C 3.6 g/m*3 -2.1 C 1.6 km/h
22 25-01-2019 01:45:00 -2 C 3.63 g/m*3 -2 C 1.6 km/h
23 25-01-2019 01:50:00 -2 C 3.63 g/m*3 -2 C 3.2 km/h
24 25-01-2019 01:55:00 -1.9 C 3.65 g/m*3 -1.9 C 0 km/h
25 25-01-2019 02:00:00 -1.9 C 3.65 g/m*3 -1.9 C 3.2 km/h
Sensor: Nr:Datum:Temp:Abs-Feuchte:Windchill:Wind:
Aussen-T/F 26 25-01-2019 02:05:00 -1.9 C 3.65 g/m*3 -1.9 C 4.8 km/h
27 25-01-2019 02:10:00 -1.9 C 3.65 g/m*3 -1.9 C 1.6 km/h
28 25-01-2019 02:15:00 -1.8 C 3.68 g/m*3 -1.8 C 1.6 km/h
29 25-01-2019 02:20:00 -1.8 C 3.72 g/m*3 -1.8 C 1.6 km/h
30 25-01-2019 02:25:00 -1.8 C 3.68 g/m*3 -1.8 C 4.8 km/h
31 25-01-2019 02:30:00 -1.8 C 3.72 g/m*3 -1.8 C 0 km/h
32 25-01-2019 02:35:00 -1.8 C 3.68 g/m*3 -1.8 C 1.6 km/h
33 25-01-2019 02:40:00 -1.8 C 3.72 g/m*3 -1.8 C 3.2 km/h
34 25-01-2019 02:45:00 -1.8 C 3.72 g/m*3 -1.8 C 3.2 km/h
35 25-01-2019 02:50:00 -1.7 C 3.75 g/m*3 -1.7 C 3.2 km/h
36 25-01-2019 02:55:00 -1.7 C 3.75 g/m*3 -1.7 C 0 km/h
37 25-01-2019 03:00:00 -1.7 C 3.75 g/m*3 -1.7 C 0 km/h
38 25-01-2019 03:05:00 -1.7 C 3.75 g/m*3 -1.7 C 0 km/h
39 25-01-2019 03:10:00 -1.7 C 3.75 g/m*3 -1.7 C 1.6 km/h
40 25-01-2019 03:15:00 -1.7 C 3.75 g/m*3 -1.7 C 1.6 km/h
41 25-01-2019 03:20:00 -1.7 C 3.79 g/m*3 -1.7 C 0 km/h
42 25-01-2019 03:25:00 -1.7 C 3.79 g/m*3 -1.7 C 0 km/h
43 25-01-2019 03:30:00 -1.7 C 3.79 g/m*3 -1.7 C 0 km/h
44 25-01-2019 03:35:00 -1.7 C 3.79 g/m*3 -1.7 C 1.6 km/h
45 25-01-2019 03:40:00 -1.7 C 3.79 g/m*3 -1.7 C 0 km/h
46 25-01-2019 03:45:00 -1.7 C 3.79 g/m*3 -1.7 C 0 km/h
47 25-01-2019 03:50:00 -1.7 C 3.79 g/m*3 -1.7 C 0 km/h
48 25-01-2019 03:55:00 -1.7 C 3.79 g/m*3 -1.7 C 4.8 km/h
49 25-01-2019 04:00:00 -1.6 C 3.81 g/m*3 -1.6 C 0 km/h
50 25-01-2019 04:05:00 -1.6 C 3.81 g/m*3 -1.6 C 0 km/h
Sensor: Nr:Datum:Temp:Abs-Feuchte:Windchill:Wind:
Aussen-T/F 51 25-01-2019 04:10:00 -1.6 C 3.81 g/m*3 -1.6 C 0 km/h
52 25-01-2019 04:15:00 -1.6 C 3.81 g/m*3 -1.6 C 0 km/h
53 25-01-2019 04:20:00 -1.6 C 3.81 g/m*3 -1.6 C 0 km/h
54 25-01-2019 04:25:00 -1.6 C 3.81 g/m*3 -1.6 C 1.6 km/h
55 25-01-2019 04:30:00 -1.6 C 3.81 g/m*3 -1.6 C 3.2 km/h
56 25-01-2019 04:35:00 -1.6 C 3.86 g/m*3 -1.6 C 4.8 km/h
57 25-01-2019 04:40:00 -1.5 C 3.89 g/m*3 -1.5 C 1.6 km/h
58 25-01-2019 04:45:00 -1.5 C 3.89 g/m*3 -1.5 C 0 km/h
59 25-01-2019 04:50:00 -1.5 C 3.89 g/m*3 -1.5 C 3.2 km/h
60 25-01-2019 04:55:00 -1.5 C 3.89 g/m*3 -1.5 C 3.2 km/h
61 25-01-2019 05:00:00 -1.4 C 3.91 g/m*3 -1.4 C 4.8 km/h
62 25-01-2019 05:05:00 -1.4 C 3.91 g/m*3 -1.4 C 1.6 km/h
63 25-01-2019 05:10:00 -1.4 C 3.91 g/m*3 -1.4 C 0 km/h
64 25-01-2019 05:15:00 -1.4 C 3.91 g/m*3 -1.4 C 0 km/h
65 25-01-2019 05:20:00 -1.4 C 3.91 g/m*3 -1.4 C 1.6 km/h
66 25-01-2019 05:25:00 -1.4 C 3.91 g/m*3 -1.4 C 1.6 km/h
67 25-01-2019 05:30:00 -1.4 C 3.91 g/m*3 -1.4 C 3.2 km/h
68 25-01-2019 05:35:00 -1.4 C 3.91 g/m*3 -1.4 C 1.6 km/h
69 25-01-2019 05:40:00 -1.4 C 3.91 g/m*3 -1.4 C 0 km/h
70 25-01-2019 05:45:00 -1.4 C 3.96 g/m*3 -1.4 C 1.6 km/h
71 25-01-2019 05:50:00 -1.4 C 3.96 g/m*3 -1.4 C 3.2 km/h
72 25-01-2019 05:55:00 -1.4 C 3.96 g/m*3 -1.4 C 3.2 km/h
73 25-01-2019 06:00:00 -1.3 C 3.98 g/m*3 -1.3 C 0 km/h
74 25-01-2019 06:05:00 -1.3 C 3.98 g/m*3 -1.3 C 0 km/h
75 25-01-2019 06:10:00 -1.3 C 3.98 g/m*3 -1.3 C 1.6 km/h
Sensor: Nr:Datum:Temp:Abs-Feuchte:Windchill:Wind:
Aussen-T/F 76 25-01-2019 06:15:00 -1.3 C 3.98 g/m*3 -1.3 C 3.2 km/h
77 25-01-2019 06:20:00 -1.3 C 3.98 g/m*3 -1.3 C 3.2 km/h
78 25-01-2019 06:25:00 -1.3 C 3.98 g/m*3 -1.3 C 1.6 km/h
79 25-01-2019 06:30:00 -1.3 C 3.98 g/m*3 -1.3 C 0 km/h
80 25-01-2019 06:35:00 -1.3 C 3.98 g/m*3 -1.3 C 0 km/h
81 25-01-2019 06:40:00 -1.3 C 3.98 g/m*3 -1.3 C 0 km/h
82 25-01-2019 06:45:00 -1.3 C 3.98 g/m*3 -1.3 C 0 km/h
83 25-01-2019 06:50:00 -1.3 C 3.98 g/m*3 -1.3 C 0 km/h
84 25-01-2019 06:55:00 -1.3 C 3.98 g/m*3 -1.3 C 0 km/h
85 25-01-2019 07:00:00 -1.3 C 3.98 g/m*3 -1.3 C 0 km/h
86 25-01-2019 07:05:00 -1.3 C 3.98 g/m*3 -1.3 C 0 km/h
87 25-01-2019 07:10:00 -1.3 C 3.98 g/m*3 -1.3 C 0 km/h
88 25-01-2019 07:15:00 -1.3 C 3.98 g/m*3 -1.3 C 0 km/h
89 25-01-2019 07:20:00 -1.3 C 3.98 g/m*3 -1.3 C 0 km/h
90 25-01-2019 07:25:00 -1.2 C 4.01 g/m*3 -1.2 C 0 km/h
91 25-01-2019 07:30:00 -1.2 C 4.01 g/m*3 -1.2 C 0 km/h
92 25-01-2019 07:35:00 -1.2 C 4.01 g/m*3 -1.2 C 0 km/h
93 25-01-2019 07:40:00 -1.2 C 4.01 g/m*3 -1.2 C 0 km/h
94 25-01-2019 07:45:00 -1.2 C 4.06 g/m*3 -1.2 C 3.2 km/h
95 25-01-2019 07:50:00 -1.2 C 4.06 g/m*3 -1.2 C 0 km/h
96 25-01-2019 07:55:00 -1.2 C 4.06 g/m*3 -1.2 C 0 km/h
97 25-01-2019 08:00:00 -1.2 C 4.06 g/m*3 -1.2 C 0 km/h
98 25-01-2019 08:05:00 -1.2 C 4.06 g/m*3 -1.2 C 1.6 km/h
99 25-01-2019 08:10:00 -1.2 C 4.06 g/m*3 -1.2 C 0 km/h
100 25-01-2019 08:15:00 -1.2 C 4.06 g/m*3 -1.2 C 0 km/h
Sensor: Nr:Datum:Temp:Abs-Feuchte:Windchill:Wind:
Aussen-T/F 101 25-01-2019 08:20:00 -1.2 C 4.06 g/m*3 -1.2 C 0 km/h
102 25-01-2019 08:25:00 -1.1 C 4.09 g/m*3 -1.1 C 0 km/h
103 25-01-2019 08:30:00 -1.1 C 4.09 g/m*3 -1.1 C 0 km/h
104 25-01-2019 08:35:00 -1.1 C 4.09 g/m*3 -1.1 C 3.2 km/h
105 25-01-2019 08:40:00 -1 C 4.11 g/m*3 -1 C 3.2 km/h
106 25-01-2019 08:45:00 -1 C 4.11 g/m*3 -1 C 0 km/h
107 25-01-2019 08:50:00 -1 C 4.11 g/m*3 -1 C 0 km/h
108 25-01-2019 08:55:00 -0.9 C 4.14 g/m*3 -0.9 C 0 km/h
109 25-01-2019 09:00:00 -0.9 C 4.14 g/m*3 -0.9 C 0 km/h
110 25-01-2019 09:05:00 -0.9 C 4.14 g/m*3 -0.9 C 0 km/h
111 25-01-2019 09:10:00 -0.9 C 4.14 g/m*3 -0.9 C 0 km/h
112 25-01-2019 09:15:00 -0.8 C 4.17 g/m*3 -0.8 C 0 km/h
113 25-01-2019 09:20:00 -0.8 C 4.17 g/m*3 -0.8 C 0 km/h
114 25-01-2019 09:25:00 -0.8 C 4.17 g/m*3 -0.8 C 0 km/h
115 25-01-2019 09:30:00 -0.8 C 4.17 g/m*3 -0.8 C 0 km/h
116 25-01-2019 09:35:00 -0.7 C 4.2 g/m*3 -0.7 C 1.6 km/h
117 25-01-2019 09:40:00 -0.7 C 4.2 g/m*3 -0.7 C 1.6 km/h
118 25-01-2019 09:45:00 -0.6 C 4.23 g/m*3 -0.6 C 3.2 km/h
119 25-01-2019 09:50:00 -0.6 C 4.23 g/m*3 -0.6 C 4.8 km/h
120 25-01-2019 09:55:00 -0.5 C 4.26 g/m*3 -0.5 C 4.8 km/h
121 25-01-2019 10:00:00 -0.5 C 4.26 g/m*3 -0.5 C 4.8 km/h
122 25-01-2019 10:05:00 -0.4 C 4.29 g/m*3 -3.24 C 8.1 km/h
123 25-01-2019 10:10:00 -0.4 C 4.29 g/m*3 -2.64 C 6.4 km/h
124 25-01-2019 10:15:00 -0.3 C 4.32 g/m*3 -3.12 C 8.1 km/h
125 25-01-2019 10:20:00 -0.3 C 4.32 g/m*3 -2.53 C 6.4 km/h
Sensor: Nr:Datum:Temp:Abs-Feuchte:Windchill:Wind:
Aussen-T/F 126 25-01-2019 10:25:00 -0.2 C 4.35 g/m*3 -2.41 C 6.4 km/h
127 25-01-2019 10:30:00 -0.2 C 4.35 g/m*3 -3.88 C 11.3 km/h
128 25-01-2019 10:35:00 -0.1 C 4.38 g/m*3 -2.3 C 6.4 km/h
129 25-01-2019 10:40:00 -0.1 C 4.38 g/m*3 -2.3 C 6.4 km/h
130 25-01-2019 10:45:00 0 C 4.46 g/m*3 -2.77 C 8.1 km/h
131 25-01-2019 10:50:00 0 C 4.41 g/m*3 -2.77 C 8.1 km/h
132 25-01-2019 10:55:00 0.1 C 4.44 g/m*3 -2.07 C 6.4 km/h
133 25-01-2019 11:00:00 0.1 C 4.44 g/m*3 0.1 C 4.8 km/h
134 25-01-2019 11:05:00 0.2 C 4.47 g/m*3 -2.53 C 8.1 km/h
135 25-01-2019 11:10:00 0.3 C 4.5 g/m*3 -1.84 C 6.4 km/h
136 25-01-2019 11:15:00 0.4 C 4.53 g/m*3 -2.3 C 8.1 km/h
137 25-01-2019 11:20:00 0.4 C 4.48 g/m*3 -2.3 C 8.1 km/h
138 25-01-2019 11:25:00 0.5 C 4.51 g/m*3 -1.6 C 6.4 km/h
139 25-01-2019 11:30:00 0.7 C 4.58 g/m*3 -2.4 C 9.7 km/h
140 25-01-2019 11:35:00 0.8 C 4.61 g/m*3 -1.83 C 8.1 km/h
141 25-01-2019 11:40:00 0.9 C 4.64 g/m*3 -1.71 C 8.1 km/h
142 25-01-2019 11:45:00 1 C 4.62 g/m*3 -1.59 C 8.1 km/h
143 25-01-2019 11:50:00 1.1 C 4.65 g/m*3 -1.48 C 8.1 km/h
144 25-01-2019 11:55:00 1.2 C 4.63 g/m*3 -1.36 C 8.1 km/h
145 25-01-2019 12:00:00 1.2 C 4.63 g/m*3 -1.8 C 9.7 km/h
146 25-01-2019 12:05:00 1.2 C 4.63 g/m*3 -1.8 C 9.7 km/h
147 25-01-2019 12:10:00 1.3 C 4.66 g/m*3 -1.69 C 9.7 km/h
148 25-01-2019 12:15:00 1.4 C 4.69 g/m*3 -1.12 C 8.1 km/h
149 25-01-2019 12:20:00 1.5 C 4.67 g/m*3 -0.45 C 6.4 km/h
150 25-01-2019 12:25:00 1.6 C 4.7 g/m*3 -1.33 C 9.7 km/h
Sensor: Nr:Datum:Temp:Abs-Feuchte:Windchill:Wind:
Aussen-T/F 151 25-01-2019 12:30:00 1.7 C 4.68 g/m*3 -1.21 C 9.7 km/h
152 25-01-2019 12:35:00 1.7 C 4.68 g/m*3 -0.77 C 8.1 km/h
153 25-01-2019 12:40:00 1.8 C 4.71 g/m*3 1.8 C 3.2 km/h
154 25-01-2019 12:45:00 1.9 C 4.75 g/m*3 1.9 C 4.8 km/h
155 25-01-2019 12:50:00 2.1 C 4.76 g/m*3 -0.3 C 8.1 km/h
156 25-01-2019 12:55:00 2.2 C 4.73 g/m*3 -0.18 C 8.1 km/h
157 25-01-2019 13:00:00 2.3 C 4.76 g/m*3 -0.49 C 9.7 km/h
158 25-01-2019 13:05:00 2.3 C 4.71 g/m*3 -0.87 C 11.3 km/h
159 25-01-2019 13:10:00 2.4 C 4.68 g/m*3 -1.37 C 14.5 km/h
160 25-01-2019 13:15:00 2.5 C 4.66 g/m*3 -1.25 C 14.5 km/h
161 25-01-2019 13:20:00 2.6 C 4.69 g/m*3 -0.5 C 11.3 km/h
162 25-01-2019 13:25:00 2.6 C 4.63 g/m*3 -0.83 C 12.9 km/h
163 25-01-2019 13:30:00 2.6 C 4.69 g/m*3 2.6 C 4.8 km/h
164 25-01-2019 13:35:00 2.6 C 4.63 g/m*3 -1.87 C 19.3 km/h
165 25-01-2019 13:40:00 2.4 C 4.62 g/m*3 -2.12 C 19.3 km/h
166 25-01-2019 13:45:00 2.4 C 4.62 g/m*3 -0.37 C 9.7 km/h
167 25-01-2019 13:50:00 2.4 C 4.62 g/m*3 -0.37 C 9.7 km/h
168 25-01-2019 13:55:00 2.4 C 4.57 g/m*3 -1.89 C 17.7 km/h
169 25-01-2019 14:00:00 2.3 C 4.54 g/m*3 -0.87 C 11.3 km/h
170 25-01-2019 14:05:00 2.3 C 4.59 g/m*3 -0.49 C 9.7 km/h
171 25-01-2019 14:10:00 2.3 C 4.59 g/m*3 -0.49 C 9.7 km/h
172 25-01-2019 14:15:00 2.3 C 4.59 g/m*3 -0.49 C 9.7 km/h
173 25-01-2019 14:20:00 2.3 C 4.59 g/m*3 -0.87 C 11.3 km/h
174 25-01-2019 14:25:00 2.2 C 4.56 g/m*3 -0.61 C 9.7 km/h
175 25-01-2019 14:30:00 2.2 C 4.56 g/m*3 -0.61 C 9.7 km/h
Sensor: Nr:Datum:Temp:Abs-Feuchte:Windchill:Wind:
Aussen-T/F 176 25-01-2019 14:35:00 2.2 C 4.56 g/m*3 -1.32 C 12.9 km/h
177 25-01-2019 14:40:00 2.2 C 4.56 g/m*3 -1.89 C 16.1 km/h
178 25-01-2019 14:45:00 2.2 C 4.62 g/m*3 -0.99 C 11.3 km/h
179 25-01-2019 14:50:00 2.2 C 4.56 g/m*3 -1.32 C 12.9 km/h
180 25-01-2019 14:55:00 2.2 C 4.56 g/m*3 -1.89 C 16.1 km/h
181 25-01-2019 15:00:00 2.2 C 4.62 g/m*3 -2.14 C 17.7 km/h
182 25-01-2019 15:05:00 2.2 C 4.62 g/m*3 -1.89 C 16.1 km/h
183 25-01-2019 15:10:00 2.2 C 4.62 g/m*3 -1.32 C 12.9 km/h
184 25-01-2019 15:15:00 2.1 C 4.59 g/m*3 -1.11 C 11.3 km/h
185 25-01-2019 15:20:00 2 C 4.56 g/m*3 -3.24 C 24.1 km/h
186 25-01-2019 15:25:00 1.9 C 4.58 g/m*3 -0.97 C 9.7 km/h
187 25-01-2019 15:30:00 1.9 C 4.58 g/m*3 -1.68 C 12.9 km/h
188 25-01-2019 15:35:00 1.9 C 4.58 g/m*3 -0.97 C 9.7 km/h
189 25-01-2019 15:40:00 1.8 C 4.55 g/m*3 -1.47 C 11.3 km/h
190 25-01-2019 15:45:00 1.8 C 4.55 g/m*3 -2.38 C 16.1 km/h
191 25-01-2019 15:50:00 1.8 C 4.55 g/m*3 -1.47 C 11.3 km/h
192 25-01-2019 15:55:00 1.8 C 4.6 g/m*3 -1.47 C 11.3 km/h
193 25-01-2019 16:00:00 1.8 C 4.6 g/m*3 -1.8 C 12.9 km/h
194 25-01-2019 16:05:00 1.8 C 4.6 g/m*3 -1.47 C 11.3 km/h
195 25-01-2019 16:10:00 1.8 C 4.6 g/m*3 -1.09 C 9.7 km/h
196 25-01-2019 16:15:00 1.8 C 4.66 g/m*3 -1.8 C 12.9 km/h
197 25-01-2019 16:20:00 1.7 C 4.63 g/m*3 -1.59 C 11.3 km/h
198 25-01-2019 16:25:00 1.7 C 4.63 g/m*3 -0.77 C 8.1 km/h
199 25-01-2019 16:30:00 1.7 C 4.63 g/m*3 -2.51 C 16.1 km/h
200 25-01-2019 16:35:00 1.7 C 4.68 g/m*3 -2.76 C 17.7 km/h
Sensor: Nr:Datum:Temp:Abs-Feuchte:Windchill:Wind:
Aussen-T/F 201 25-01-2019 16:40:00 1.7 C 4.68 g/m*3 -2.23 C 14.5 km/h
202 25-01-2019 16:45:00 1.6 C 4.65 g/m*3 -1.33 C 9.7 km/h
203 25-01-2019 16:50:00 1.7 C 4.68 g/m*3 -2.23 C 14.5 km/h
204 25-01-2019 16:55:00 1.7 C 4.68 g/m*3 -2.51 C 16.1 km/h
205 25-01-2019 17:00:00 1.7 C 4.68 g/m*3 -2.23 C 14.5 km/h
206 25-01-2019 17:05:00 1.7 C 4.74 g/m*3 -1.59 C 11.3 km/h
207 25-01-2019 17:10:00 1.7 C 4.74 g/m*3 -1.21 C 9.7 km/h
208 25-01-2019 17:15:00 1.7 C 4.74 g/m*3 -2.23 C 14.5 km/h
209 25-01-2019 17:20:00 1.7 C 4.74 g/m*3 -3 C 19.3 km/h
210 25-01-2019 17:25:00 1.7 C 4.74 g/m*3 -1.59 C 11.3 km/h
211 25-01-2019 17:30:00 1.7 C 4.74 g/m*3 -2.23 C 14.5 km/h
212 25-01-2019 17:35:00 1.7 C 4.74 g/m*3 -2.23 C 14.5 km/h
213 25-01-2019 17:40:00 1.7 C 4.74 g/m*3 -2.23 C 14.5 km/h
214 25-01-2019 17:45:00 1.7 C 4.74 g/m*3 -0.22 C 6.4 km/h
215 25-01-2019 17:50:00 1.7 C 4.74 g/m*3 -0.77 C 8.1 km/h
216 25-01-2019 17:55:00 1.7 C 4.74 g/m*3 -0.22 C 6.4 km/h
217 25-01-2019 18:00:00 1.7 C 4.74 g/m*3 -0.22 C 6.4 km/h
218 25-01-2019 18:05:00 1.7 C 4.74 g/m*3 -0.22 C 6.4 km/h
219 25-01-2019 18:10:00 1.7 C 4.74 g/m*3 -0.22 C 6.4 km/h
220 25-01-2019 18:15:00 1.7 C 4.74 g/m*3 -3 C 19.3 km/h
221 25-01-2019 18:20:00 1.8 C 4.77 g/m*3 -2.64 C 17.7 km/h
222 25-01-2019 18:25:00 1.8 C 4.77 g/m*3 -1.09 C 9.7 km/h
223 25-01-2019 18:30:00 1.8 C 4.77 g/m*3 -1.47 C 11.3 km/h
224 25-01-2019 18:35:00 1.8 C 4.77 g/m*3 -2.11 C 14.5 km/h
225 25-01-2019 18:40:00 1.8 C 4.77 g/m*3 -1.09 C 9.7 km/h
Sensor: Nr:Datum:Temp:Abs-Feuchte:Windchill:Wind:
Aussen-T/F 226 25-01-2019 18:45:00 1.8 C 4.77 g/m*3 -1.8 C 12.9 km/h
227 25-01-2019 18:50:00 1.8 C 4.77 g/m*3 -1.47 C 11.3 km/h
228 25-01-2019 18:55:00 1.8 C 4.77 g/m*3 -0.65 C 8.1 km/h
229 25-01-2019 19:00:00 1.8 C 4.77 g/m*3 -1.09 C 9.7 km/h
230 25-01-2019 19:05:00 1.8 C 4.82 g/m*3 -1.09 C 9.7 km/h
231 25-01-2019 19:10:00 1.7 C 4.79 g/m*3 -1.93 C 12.9 km/h
232 25-01-2019 19:15:00 1.7 C 4.85 g/m*3 -0.22 C 6.4 km/h
233 25-01-2019 19:20:00 1.6 C 4.81 g/m*3 -1.33 C 9.7 km/h
234 25-01-2019 19:25:00 1.6 C 4.87 g/m*3 -2.35 C 14.5 km/h
235 25-01-2019 19:30:00 1.4 C 4.8 g/m*3 -1.95 C 11.3 km/h
236 25-01-2019 19:35:00 1.4 C 4.85 g/m*3 -2.6 C 14.5 km/h
237 25-01-2019 19:40:00 1.3 C 4.82 g/m*3 -3.5 C 19.3 km/h
238 25-01-2019 19:45:00 1.3 C 4.82 g/m*3 -2.07 C 11.3 km/h
239 25-01-2019 19:50:00 1.3 C 4.82 g/m*3 -1.24 C 8.1 km/h
240 25-01-2019 19:55:00 1.3 C 4.87 g/m*3 -2.41 C 12.9 km/h
241 25-01-2019 20:00:00 1.4 C 4.91 g/m*3 -1.57 C 9.7 km/h
242 25-01-2019 20:05:00 1.4 C 4.91 g/m*3 -1.57 C 9.7 km/h
243 25-01-2019 20:10:00 1.4 C 4.85 g/m*3 -1.57 C 9.7 km/h
244 25-01-2019 20:15:00 1.4 C 4.85 g/m*3 -2.88 C 16.1 km/h
245 25-01-2019 20:20:00 1.5 C 4.89 g/m*3 -1.45 C 9.7 km/h
246 25-01-2019 20:25:00 1.6 C 4.92 g/m*3 -3.12 C 19.3 km/h
247 25-01-2019 20:30:00 1.6 C 4.92 g/m*3 -1.33 C 9.7 km/h
248 25-01-2019 20:35:00 1.6 C 4.92 g/m*3 -2.63 C 16.1 km/h
249 25-01-2019 20:40:00 1.6 C 4.92 g/m*3 -2.05 C 12.9 km/h
250 25-01-2019 20:45:00 1.5 C 4.89 g/m*3 -1.45 C 9.7 km/h
Sensor: Nr:Datum:Temp:Abs-Feuchte:Windchill:Wind:
Aussen-T/F 251 25-01-2019 20:50:00 1.5 C 4.89 g/m*3 -2.48 C 14.5 km/h
252 25-01-2019 20:55:00 1.5 C 4.89 g/m*3 -2.17 C 12.9 km/h
253 25-01-2019 21:00:00 1.6 C 4.92 g/m*3 -3.35 C 20.9 km/h
254 25-01-2019 21:05:00 1.6 C 4.92 g/m*3 -2.05 C 12.9 km/h
255 25-01-2019 21:10:00 1.6 C 4.92 g/m*3 -3.12 C 19.3 km/h
256 25-01-2019 21:15:00 1.6 C 4.92 g/m*3 -2.35 C 14.5 km/h
257 25-01-2019 21:20:00 1.7 C 4.95 g/m*3 -3 C 19.3 km/h
258 25-01-2019 21:25:00 1.7 C 4.95 g/m*3 -3 C 19.3 km/h
259 25-01-2019 21:30:00 1.7 C 4.95 g/m*3 -2.23 C 14.5 km/h
260 25-01-2019 21:35:00 1.7 C 4.95 g/m*3 -2.51 C 16.1 km/h
261 25-01-2019 21:40:00 1.7 C 4.95 g/m*3 -2.23 C 14.5 km/h
262 25-01-2019 21:45:00 1.7 C 4.95 g/m*3 -2.76 C 17.7 km/h
263 25-01-2019 21:50:00 1.7 C 4.95 g/m*3 -2.23 C 14.5 km/h
264 25-01-2019 21:55:00 1.7 C 4.95 g/m*3 -2.76 C 17.7 km/h
265 25-01-2019 22:00:00 1.7 C 4.95 g/m*3 -2.76 C 17.7 km/h
266 25-01-2019 22:05:00 1.7 C 4.95 g/m*3 -2.23 C 14.5 km/h
267 25-01-2019 22:10:00 1.8 C 4.99 g/m*3 -2.11 C 14.5 km/h
268 25-01-2019 22:15:00 1.8 C 4.99 g/m*3 -2.64 C 17.7 km/h
269 25-01-2019 22:20:00 1.8 C 4.99 g/m*3 -1.8 C 12.9 km/h
270 25-01-2019 22:25:00 1.8 C 4.99 g/m*3 -2.64 C 17.7 km/h
271 25-01-2019 22:30:00 1.8 C 5.04 g/m*3 -1.8 C 12.9 km/h
272 25-01-2019 22:35:00 1.8 C 5.04 g/m*3 -2.38 C 16.1 km/h
273 25-01-2019 22:40:00 1.8 C 5.04 g/m*3 -2.87 C 19.3 km/h
274 25-01-2019 22:45:00 1.8 C 5.04 g/m*3 -2.38 C 16.1 km/h
275 25-01-2019 22:50:00 1.8 C 5.04 g/m*3 -1.8 C 12.9 km/h
Sensor: Nr:Datum:Temp:Abs-Feuchte:Windchill:Wind:
Aussen-T/F 276 25-01-2019 22:55:00 1.8 C 5.1 g/m*3 -2.87 C 19.3 km/h
277 25-01-2019 23:00:00 1.8 C 5.1 g/m*3 -2.11 C 14.5 km/h
278 25-01-2019 23:05:00 1.8 C 5.1 g/m*3 -2.11 C 14.5 km/h
279 25-01-2019 23:10:00 1.8 C 5.1 g/m*3 -2.11 C 14.5 km/h
280 25-01-2019 23:15:00 1.8 C 5.1 g/m*3 -2.11 C 14.5 km/h
281 25-01-2019 23:20:00 1.8 C 5.1 g/m*3 -1.8 C 12.9 km/h
282 25-01-2019 23:25:00 1.8 C 5.1 g/m*3 -2.11 C 14.5 km/h
283 25-01-2019 23:30:00 1.8 C 5.1 g/m*3 -1.47 C 11.3 km/h
284 25-01-2019 23:35:00 1.8 C 5.15 g/m*3 -1.8 C 12.9 km/h
285 25-01-2019 23:40:00 1.8 C 5.15 g/m*3 -2.87 C 19.3 km/h
286 25-01-2019 23:45:00 1.8 C 5.15 g/m*3 -2.38 C 16.1 km/h
287 25-01-2019 23:50:00 1.8 C 5.15 g/m*3 -2.11 C 14.5 km/h
288 25-01-2019 23:55:00 1.8 C 5.15 g/m*3 -2.64 C 17.7 km/h
289 26-01-2019 00:00:00 1.8 C 5.15 g/m*3 -2.11 C 14.5 km/h
290 26-01-2019 00:05:00 1.8 C 5.15 g/m*3 -2.64 C 17.7 km/h
291 26-01-2019 00:10:00 1.8 C 5.15 g/m*3 -3.09 C 20.9 km/h
292 26-01-2019 00:15:00 1.8 C 5.15 g/m*3 -2.38 C 16.1 km/h
293 26-01-2019 00:20:00 1.8 C 5.15 g/m*3 -2.38 C 16.1 km/h
294 26-01-2019 00:25:00 1.8 C 5.15 g/m*3 -4.03 C 29 km/h
295 26-01-2019 00:30:00 1.9 C 5.19 g/m*3 -3.17 C 22.5 km/h
296 26-01-2019 00:35:00 1.9 C 5.19 g/m*3 -2.75 C 19.3 km/h
297 26-01-2019 00:40:00 1.9 C 5.19 g/m*3 -1.35 C 11.3 km/h
298 26-01-2019 00:45:00 1.9 C 5.24 g/m*3 -2.51 C 17.7 km/h
299 26-01-2019 00:50:00 1.9 C 5.24 g/m*3 -1.98 C 14.5 km/h
300 26-01-2019 00:55:00 1.9 C 5.24 g/m*3 -3.17 C 22.5 km/h
Sensor: Nr:Datum:Temp:Abs-Feuchte:Windchill:Wind:
Aussen-T/F 301 26-01-2019 01:00:00 1.9 C 5.24 g/m*3 -2.97 C 20.9 km/h
302 26-01-2019 01:05:00 1.9 C 5.24 g/m*3 -1.98 C 14.5 km/h
303 26-01-2019 01:10:00 1.9 C 5.24 g/m*3 -1.68 C 12.9 km/h
304 26-01-2019 01:15:00 2 C 5.28 g/m*3 -2.14 C 16.1 km/h
305 26-01-2019 01:20:00 2 C 5.28 g/m*3 -1.86 C 14.5 km/h
306 26-01-2019 01:25:00 2.1 C 5.31 g/m*3 -2.26 C 17.7 km/h
307 26-01-2019 01:30:00 2.1 C 5.31 g/m*3 -1.11 C 11.3 km/h
308 26-01-2019 01:35:00 2.1 C 5.31 g/m*3 -2.26 C 17.7 km/h
309 26-01-2019 01:40:00 2.1 C 5.26 g/m*3 -2.5 C 19.3 km/h
310 26-01-2019 01:45:00 2.1 C 5.26 g/m*3 -2.01 C 16.1 km/h
311 26-01-2019 01:50:00 2.1 C 5.26 g/m*3 -2.01 C 16.1 km/h
312 26-01-2019 01:55:00 2.2 C 5.29 g/m*3 -2.14 C 17.7 km/h
313 26-01-2019 02:00:00 2.2 C 5.29 g/m*3 -2.37 C 19.3 km/h
314 26-01-2019 02:05:00 2.2 C 5.29 g/m*3 -2.14 C 17.7 km/h
315 26-01-2019 02:10:00 2.3 C 5.33 g/m*3 -2.24 C 19.3 km/h
316 26-01-2019 02:15:00 2.3 C 5.33 g/m*3 -1.76 C 16.1 km/h
317 26-01-2019 02:20:00 2.3 C 5.33 g/m*3 -2.66 C 22.5 km/h
318 26-01-2019 02:25:00 2.3 C 5.33 g/m*3 -1.2 C 12.9 km/h
319 26-01-2019 02:30:00 2.3 C 5.33 g/m*3 -3.03 C 25.7 km/h
320 26-01-2019 02:35:00 2.4 C 5.37 g/m*3 -2.12 C 19.3 km/h
321 26-01-2019 02:40:00 2.4 C 5.37 g/m*3 -1.64 C 16.1 km/h
322 26-01-2019 02:45:00 2.4 C 5.37 g/m*3 -1.64 C 16.1 km/h
323 26-01-2019 02:50:00 2.4 C 5.37 g/m*3 -1.64 C 16.1 km/h
324 26-01-2019 02:55:00 2.4 C 5.37 g/m*3 -1.07 C 12.9 km/h
325 26-01-2019 03:00:00 2.5 C 5.4 g/m*3 -1.25 C 14.5 km/h
Sensor: Nr:Datum:Temp:Abs-Feuchte:Windchill:Wind:
Aussen-T/F 326 26-01-2019 03:05:00 2.5 C 5.4 g/m*3 -1.52 C 16.1 km/h
327 26-01-2019 03:10:00 2.5 C 5.4 g/m*3 -2.41 C 22.5 km/h
328 26-01-2019 03:15:00 2.5 C 5.35 g/m*3 -1.99 C 19.3 km/h
329 26-01-2019 03:20:00 2.6 C 5.38 g/m*3 -1.64 C 17.7 km/h
330 26-01-2019 03:25:00 2.6 C 5.44 g/m*3 -1.39 C 16.1 km/h
331 26-01-2019 03:30:00 2.6 C 5.44 g/m*3 -1.39 C 16.1 km/h
332 26-01-2019 03:35:00 2.7 C 5.42 g/m*3 -1.51 C 17.7 km/h
333 26-01-2019 03:40:00 2.7 C 5.42 g/m*3 -1.74 C 19.3 km/h
334 26-01-2019 03:45:00 2.7 C 5.42 g/m*3 -1.74 C 19.3 km/h
335 26-01-2019 03:50:00 2.8 C 5.46 g/m*3 -1.14 C 16.1 km/h
336 26-01-2019 03:55:00 2.8 C 5.46 g/m*3 -0.26 C 11.3 km/h
337 26-01-2019 04:00:00 2.8 C 5.46 g/m*3 -1.83 C 20.9 km/h
338 26-01-2019 04:05:00 2.8 C 5.46 g/m*3 -1.83 C 20.9 km/h
339 26-01-2019 04:10:00 2.8 C 5.46 g/m*3 -1.39 C 17.7 km/h
340 26-01-2019 04:15:00 2.9 C 5.49 g/m*3 -1.02 C 16.1 km/h
341 26-01-2019 04:20:00 2.9 C 5.49 g/m*3 -0.46 C 12.9 km/h
342 26-01-2019 04:25:00 2.9 C 5.49 g/m*3 -1.7 C 20.9 km/h
343 26-01-2019 04:30:00 3 C 5.53 g/m*3 -0.63 C 14.5 km/h
344 26-01-2019 04:35:00 3 C 5.53 g/m*3 -0.63 C 14.5 km/h
345 26-01-2019 04:40:00 3.1 C 5.57 g/m*3 -1.64 C 22.5 km/h
346 26-01-2019 04:45:00 3.1 C 5.51 g/m*3 -0.51 C 14.5 km/h
347 26-01-2019 04:50:00 3.2 C 5.6 g/m*3 -0.65 C 16.1 km/h
348 26-01-2019 04:55:00 3.2 C 5.54 g/m*3 -0.89 C 17.7 km/h
349 26-01-2019 05:00:00 3.3 C 5.58 g/m*3 -0.26 C 14.5 km/h
350 26-01-2019 05:05:00 3.3 C 5.58 g/m*3 -1.19 C 20.9 km/h
Sensor: Nr:Datum:Temp:Abs-Feuchte:Windchill:Wind:
Aussen-T/F 351 26-01-2019 05:10:00 3.3 C 5.58 g/m*3 0.34 C 11.3 km/h
352 26-01-2019 05:15:00 3.4 C 5.62 g/m*3 -1.07 C 20.9 km/h
353 26-01-2019 05:20:00 3.4 C 5.62 g/m*3 -0.14 C 14.5 km/h
354 26-01-2019 05:25:00 3.4 C 5.62 g/m*3 0.14 C 12.9 km/h
355 26-01-2019 05:30:00 3.4 C 5.62 g/m*3 -0.64 C 17.7 km/h
356 26-01-2019 05:35:00 3.4 C 5.62 g/m*3 0.14 C 12.9 km/h
357 26-01-2019 05:40:00 3.4 C 5.62 g/m*3 -0.4 C 16.1 km/h
358 26-01-2019 05:45:00 3.4 C 5.62 g/m*3 -0.14 C 14.5 km/h
359 26-01-2019 05:50:00 3.3 C 5.58 g/m*3 -0.99 C 19.3 km/h
360 26-01-2019 05:55:00 3.3 C 5.58 g/m*3 -0.52 C 16.1 km/h
361 26-01-2019 06:00:00 3.3 C 5.58 g/m*3 -0.26 C 14.5 km/h
362 26-01-2019 06:05:00 3.3 C 5.58 g/m*3 0.34 C 11.3 km/h
363 26-01-2019 06:10:00 3.3 C 5.58 g/m*3 -0.26 C 14.5 km/h
364 26-01-2019 06:15:00 3.3 C 5.58 g/m*3 0.02 C 12.9 km/h
365 26-01-2019 06:20:00 3.2 C 5.54 g/m*3 -0.89 C 17.7 km/h
366 26-01-2019 06:25:00 3.2 C 5.6 g/m*3 -0.65 C 16.1 km/h
367 26-01-2019 06:30:00 3.2 C 5.6 g/m*3 -0.89 C 17.7 km/h
368 26-01-2019 06:35:00 3.2 C 5.6 g/m*3 0.22 C 11.3 km/h
369 26-01-2019 06:40:00 3.2 C 5.6 g/m*3 -0.65 C 16.1 km/h
370 26-01-2019 06:45:00 3.2 C 5.6 g/m*3 -0.89 C 17.7 km/h
371 26-01-2019 06:50:00 3.3 C 5.64 g/m*3 0.34 C 11.3 km/h
372 26-01-2019 06:55:00 3.2 C 5.6 g/m*3 -0.1 C 12.9 km/h
373 26-01-2019 07:00:00 3.2 C 5.6 g/m*3 -0.39 C 14.5 km/h
374 26-01-2019 07:05:00 3.2 C 5.6 g/m*3 -0.65 C 16.1 km/h
375 26-01-2019 07:10:00 3.2 C 5.6 g/m*3 -0.39 C 14.5 km/h
Sensor: Nr:Datum:Temp:Abs-Feuchte:Windchill:Wind:
Aussen-T/F 376 26-01-2019 07:15:00 3.2 C 5.6 g/m*3 -0.1 C 12.9 km/h
377 26-01-2019 07:20:00 3.2 C 5.6 g/m*3 -0.65 C 16.1 km/h
378 26-01-2019 07:25:00 3.2 C 5.66 g/m*3 -0.1 C 12.9 km/h
379 26-01-2019 07:30:00 3.3 C 5.7 g/m*3 0.02 C 12.9 km/h
380 26-01-2019 07:35:00 3.3 C 5.7 g/m*3 0.34 C 11.3 km/h
381 26-01-2019 07:40:00 3.3 C 5.7 g/m*3 -0.26 C 14.5 km/h
382 26-01-2019 07:45:00 3.3 C 5.7 g/m*3 0.02 C 12.9 km/h
383 26-01-2019 07:50:00 3.3 C 5.7 g/m*3 -0.52 C 16.1 km/h
384 26-01-2019 07:55:00 3.4 C 5.74 g/m*3 -0.4 C 16.1 km/h
385 26-01-2019 08:00:00 3.4 C 5.74 g/m*3 0.14 C 12.9 km/h
386 26-01-2019 08:05:00 3.6 C 5.82 g/m*3 -0.61 C 19.3 km/h
387 26-01-2019 08:10:00 3.7 C 5.86 g/m*3 -0.48 C 19.3 km/h
388 26-01-2019 08:15:00 3.7 C 5.86 g/m*3 -0.48 C 19.3 km/h
389 26-01-2019 08:20:00 3.7 C 5.86 g/m*3 0.23 C 14.5 km/h
390 26-01-2019 08:25:00 3.8 C 5.9 g/m*3 0.63 C 12.9 km/h
391 26-01-2019 08:30:00 3.8 C 5.9 g/m*3 0.1 C 16.1 km/h
392 26-01-2019 08:35:00 3.8 C 5.9 g/m*3 -0.56 C 20.9 km/h
393 26-01-2019 08:40:00 3.8 C 5.9 g/m*3 0.1 C 16.1 km/h
394 26-01-2019 08:45:00 3.9 C 5.94 g/m*3 0.75 C 12.9 km/h
395 26-01-2019 08:50:00 3.9 C 5.94 g/m*3 0.47 C 14.5 km/h
396 26-01-2019 08:55:00 4 C 5.91 g/m*3 0.34 C 16.1 km/h
397 26-01-2019 09:00:00 4.1 C 5.95 g/m*3 0.24 C 17.7 km/h
398 26-01-2019 09:05:00 4.1 C 5.95 g/m*3 0.02 C 19.3 km/h
399 26-01-2019 09:10:00 4.1 C 5.95 g/m*3 1 C 12.9 km/h
400 26-01-2019 09:15:00 4.2 C 5.99 g/m*3 1.12 C 12.9 km/h
Sensor: Nr:Datum:Temp:Abs-Feuchte:Windchill:Wind:
Aussen-T/F 401 26-01-2019 09:20:00 4.2 C 5.99 g/m*3 0.36 C 17.7 km/h
402 26-01-2019 09:25:00 4.2 C 5.99 g/m*3 0.59 C 16.1 km/h
403 26-01-2019 09:30:00 4.2 C 5.99 g/m*3 0.36 C 17.7 km/h
404 26-01-2019 09:35:00 4.3 C 6.03 g/m*3 -0.62 C 27.4 km/h
405 26-01-2019 09:40:00 4.4 C 6.07 g/m*3 0.4 C 19.3 km/h
406 26-01-2019 09:45:00 4.6 C 6.15 g/m*3 1.09 C 16.1 km/h
407 26-01-2019 09:50:00 4.7 C 6.19 g/m*3 0.06 C 25.7 km/h
408 26-01-2019 09:55:00 4.8 C 6.17 g/m*3 0.9 C 19.3 km/h
409 26-01-2019 10:00:00 4.9 C 6.21 g/m*3 1.7 C 14.5 km/h
410 26-01-2019 10:05:00 4.9 C 6.21 g/m*3 0.32 C 25.7 km/h
411 26-01-2019 10:10:00 4.9 C 6.14 g/m*3 1.46 C 16.1 km/h
412 26-01-2019 10:15:00 4.9 C 6.21 g/m*3 2.99 C 8.1 km/h
413 26-01-2019 10:20:00 4.9 C 6.21 g/m*3 2.27 C 11.3 km/h
414 26-01-2019 10:25:00 4.8 C 6.17 g/m*3 0.9 C 19.3 km/h
415 26-01-2019 10:30:00 4.8 C 6.17 g/m*3 1.58 C 14.5 km/h
416 26-01-2019 10:35:00 4.8 C 6.17 g/m*3 1.58 C 14.5 km/h
417 26-01-2019 10:40:00 4.8 C 6.17 g/m*3 1.85 C 12.9 km/h
418 26-01-2019 10:45:00 4.7 C 6.13 g/m*3 2.76 C 8.1 km/h
419 26-01-2019 10:50:00 4.8 C 6.17 g/m*3 2.49 C 9.7 km/h
420 26-01-2019 10:55:00 4.8 C 6.17 g/m*3 1.34 C 16.1 km/h
421 26-01-2019 11:00:00 4.9 C 6.21 g/m*3 1.7 C 14.5 km/h
422 26-01-2019 11:05:00 4.9 C 6.21 g/m*3 0.83 C 20.9 km/h
423 26-01-2019 11:10:00 5 C 6.25 g/m*3 2.09 C 12.9 km/h
424 26-01-2019 11:15:00 5.1 C 6.29 g/m*3 1.71 C 16.1 km/h
425 26-01-2019 11:20:00 5.1 C 6.29 g/m*3 2.22 C 12.9 km/h
Sensor: Nr:Datum:Temp:Abs-Feuchte:Windchill:Wind:
Aussen-T/F 426 26-01-2019 11:25:00 5.2 C 6.33 g/m*3 2.07 C 14.5 km/h
427 26-01-2019 11:30:00 5.2 C 6.33 g/m*3 2.07 C 14.5 km/h
428 26-01-2019 11:35:00 5.2 C 6.33 g/m*3 1.61 C 17.7 km/h
429 26-01-2019 11:40:00 5.3 C 6.38 g/m*3 1.53 C 19.3 km/h
430 26-01-2019 11:45:00 5.3 C 6.38 g/m*3 2.2 C 14.5 km/h
431 26-01-2019 11:50:00 5.4 C 6.42 g/m*3 2.87 C 11.3 km/h
432 26-01-2019 11:55:00 5.4 C 6.42 g/m*3 1.86 C 17.7 km/h
433 26-01-2019 12:00:00 5.4 C 6.42 g/m*3 1.86 C 17.7 km/h
434 26-01-2019 12:05:00 5.5 C 6.46 g/m*3 2.7 C 12.9 km/h
435 26-01-2019 12:10:00 5.6 C 6.43 g/m*3 2.33 C 16.1 km/h
436 26-01-2019 12:15:00 5.6 C 6.43 g/m*3 2.11 C 17.7 km/h
437 26-01-2019 12:20:00 5.7 C 6.48 g/m*3 2.95 C 12.9 km/h
438 26-01-2019 12:25:00 5.8 C 6.52 g/m*3 3.68 C 9.7 km/h
439 26-01-2019 12:30:00 5.9 C 6.56 g/m*3 3.48 C 11.3 km/h
440 26-01-2019 12:35:00 5.9 C 6.49 g/m*3 2.93 C 14.5 km/h
441 26-01-2019 12:40:00 6 C 6.53 g/m*3 1.89 C 24.1 km/h
442 26-01-2019 12:45:00 6 C 6.53 g/m*3 2.82 C 16.1 km/h
443 26-01-2019 12:50:00 6.1 C 6.58 g/m*3 2.95 C 16.1 km/h
444 26-01-2019 12:55:00 6.2 C 6.62 g/m*3 3.3 C 14.5 km/h
445 26-01-2019 13:00:00 6.2 C 6.62 g/m*3 2.66 C 19.3 km/h
446 26-01-2019 13:05:00 6.1 C 6.58 g/m*3 3.43 C 12.9 km/h
447 26-01-2019 13:10:00 6.1 C 6.58 g/m*3 3.18 C 14.5 km/h
448 26-01-2019 13:15:00 6 C 6.53 g/m*3 2.23 C 20.9 km/h
449 26-01-2019 13:20:00 5.9 C 6.49 g/m*3 3.19 C 12.9 km/h
450 26-01-2019 13:25:00 5.9 C 6.49 g/m*3 2.7 C 16.1 km/h
Sensor: Nr:Datum:Temp:Abs-Feuchte:Windchill:Wind:
Aussen-T/F 451 26-01-2019 13:30:00 5.9 C 6.49 g/m*3 2.29 C 19.3 km/h
452 26-01-2019 13:35:00 5.9 C 6.49 g/m*3 3.48 C 11.3 km/h
453 26-01-2019 13:40:00 5.9 C 6.49 g/m*3 2.93 C 14.5 km/h
454 26-01-2019 13:45:00 5.9 C 6.49 g/m*3 3.19 C 12.9 km/h
455 26-01-2019 13:50:00 5.8 C 6.45 g/m*3 3.07 C 12.9 km/h
456 26-01-2019 13:55:00 5.8 C 6.45 g/m*3 3.68 C 9.7 km/h
457 26-01-2019 14:00:00 5.8 C 6.45 g/m*3 3.07 C 12.9 km/h
458 26-01-2019 14:05:00 5.8 C 6.45 g/m*3 3.07 C 12.9 km/h
459 26-01-2019 14:10:00 5.8 C 6.52 g/m*3 3.36 C 11.3 km/h
460 26-01-2019 14:15:00 5.8 C 6.52 g/m*3 2.36 C 17.7 km/h
461 26-01-2019 14:20:00 5.9 C 6.56 g/m*3 4.63 C 6.4 km/h
462 26-01-2019 14:25:00 5.9 C 6.56 g/m*3 4.17 C 8.1 km/h
463 26-01-2019 14:30:00 5.9 C 6.56 g/m*3 2.93 C 14.5 km/h
464 26-01-2019 14:35:00 6 C 6.6 g/m*3 3.06 C 14.5 km/h
465 26-01-2019 14:40:00 6.1 C 6.65 g/m*3 3.43 C 12.9 km/h
466 26-01-2019 14:45:00 6.1 C 6.58 g/m*3 3.72 C 11.3 km/h
467 26-01-2019 14:50:00 6.2 C 6.69 g/m*3 4.15 C 9.7 km/h
468 26-01-2019 14:55:00 6.2 C 6.62 g/m*3 3.56 C 12.9 km/h
469 26-01-2019 15:00:00 6.3 C 6.66 g/m*3 4.27 C 9.7 km/h
470 26-01-2019 15:05:00 6.3 C 6.66 g/m*3 4.27 C 9.7 km/h
471 26-01-2019 15:10:00 6.3 C 6.59 g/m*3 3.43 C 14.5 km/h
472 26-01-2019 15:15:00 6.3 C 6.59 g/m*3 4.27 C 9.7 km/h
473 26-01-2019 15:20:00 6.3 C 6.59 g/m*3 3.43 C 14.5 km/h
474 26-01-2019 15:25:00 6.2 C 6.55 g/m*3 3.56 C 12.9 km/h
475 26-01-2019 15:30:00 6.2 C 6.55 g/m*3 4.52 C 8.1 km/h
Sensor: Nr:Datum:Temp:Abs-Feuchte:Windchill:Wind:
Aussen-T/F 476 26-01-2019 15:35:00 6.2 C 6.55 g/m*3 3.3 C 14.5 km/h
477 26-01-2019 15:40:00 6.2 C 6.55 g/m*3 4.15 C 9.7 km/h
478 26-01-2019 15:45:00 6.1 C 6.5 g/m*3 4.04 C 9.7 km/h
479 26-01-2019 15:50:00 6.1 C 6.5 g/m*3 4.4 C 8.1 km/h
480 26-01-2019 15:55:00 6.1 C 6.58 g/m*3 4.86 C 6.4 km/h
481 26-01-2019 16:00:00 6.1 C 6.58 g/m*3 4.86 C 6.4 km/h
482 26-01-2019 16:05:00 6.1 C 6.58 g/m*3 3.72 C 11.3 km/h
483 26-01-2019 16:10:00 6 C 6.53 g/m*3 6 C 4.8 km/h
484 26-01-2019 16:15:00 6 C 6.53 g/m*3 4.75 C 6.4 km/h
485 26-01-2019 16:20:00 6 C 6.53 g/m*3 6 C 4.8 km/h
486 26-01-2019 16:25:00 5.9 C 6.49 g/m*3 4.17 C 8.1 km/h
487 26-01-2019 16:30:00 5.9 C 6.49 g/m*3 4.17 C 8.1 km/h
488 26-01-2019 16:35:00 5.9 C 6.49 g/m*3 5.9 C 3.2 km/h
489 26-01-2019 16:40:00 5.9 C 6.49 g/m*3 4.63 C 6.4 km/h
490 26-01-2019 16:45:00 5.9 C 6.49 g/m*3 3.48 C 11.3 km/h
491 26-01-2019 16:50:00 5.9 C 6.49 g/m*3 5.9 C 4.8 km/h
492 26-01-2019 16:55:00 5.9 C 6.49 g/m*3 5.9 C 4.8 km/h
493 26-01-2019 17:00:00 5.9 C 6.49 g/m*3 5.9 C 4.8 km/h
494 26-01-2019 17:05:00 5.9 C 6.49 g/m*3 4.17 C 8.1 km/h
495 26-01-2019 17:10:00 5.8 C 6.38 g/m*3 4.05 C 8.1 km/h
496 26-01-2019 17:15:00 5.7 C 6.4 g/m*3 5.7 C 1.6 km/h
497 26-01-2019 17:20:00 5.7 C 6.4 g/m*3 5.7 C 4.8 km/h
498 26-01-2019 17:25:00 5.6 C 6.36 g/m*3 5.6 C 3.2 km/h
499 26-01-2019 17:30:00 5.6 C 6.36 g/m*3 5.6 C 4.8 km/h
500 26-01-2019 17:35:00 5.6 C 6.36 g/m*3 4.29 C 6.4 km/h
Sensor: Nr:Datum:Temp:Abs-Feuchte:Windchill:Wind:
Aussen-T/F 501 26-01-2019 17:40:00 5.4 C 6.28 g/m*3 5.4 C 3.2 km/h
502 26-01-2019 17:45:00 5.3 C 6.24 g/m*3 5.3 C 0 km/h
503 26-01-2019 17:50:00 5.2 C 6.2 g/m*3 5.2 C 3.2 km/h
504 26-01-2019 17:55:00 5.1 C 6.16 g/m*3 5.1 C 1.6 km/h
505 26-01-2019 18:00:00 5.1 C 6.22 g/m*3 5.1 C 0 km/h
506 26-01-2019 18:05:00 5 C 6.18 g/m*3 5 C 1.6 km/h
507 26-01-2019 18:10:00 4.9 C 6.21 g/m*3 4.9 C 1.6 km/h
508 26-01-2019 18:15:00 4.9 C 6.21 g/m*3 4.9 C 0 km/h
509 26-01-2019 18:20:00 4.9 C 6.21 g/m*3 4.9 C 1.6 km/h
510 26-01-2019 18:25:00 4.8 C 6.17 g/m*3 4.8 C 0 km/h
511 26-01-2019 18:30:00 4.8 C 6.17 g/m*3 4.8 C 0 km/h
512 26-01-2019 18:35:00 4.7 C 6.19 g/m*3 4.7 C 0 km/h
513 26-01-2019 18:40:00 4.7 C 6.19 g/m*3 4.7 C 4.8 km/h
514 26-01-2019 18:45:00 4.9 C 6.28 g/m*3 4.9 C 4.8 km/h
515 26-01-2019 18:50:00 5 C 6.39 g/m*3 5 C 1.6 km/h
516 26-01-2019 18:55:00 5 C 6.32 g/m*3 5 C 1.6 km/h
517 26-01-2019 19:00:00 5.1 C 6.36 g/m*3 5.1 C 3.2 km/h
518 26-01-2019 19:05:00 5.1 C 6.43 g/m*3 5.1 C 1.6 km/h
519 26-01-2019 19:10:00 5.1 C 6.43 g/m*3 5.1 C 0 km/h
520 26-01-2019 19:15:00 5.1 C 6.36 g/m*3 5.1 C 1.6 km/h
521 26-01-2019 19:20:00 5 C 6.32 g/m*3 5 C 3.2 km/h
522 26-01-2019 19:25:00 5 C 6.39 g/m*3 5 C 0 km/h
523 26-01-2019 19:30:00 5 C 6.39 g/m*3 5 C 0 km/h
524 26-01-2019 19:35:00 5 C 6.39 g/m*3 5 C 0 km/h
525 26-01-2019 19:40:00 5 C 6.39 g/m*3 5 C 0 km/h
Sensor: Nr:Datum:Temp:Abs-Feuchte:Windchill:Wind:
Aussen-T/F 526 26-01-2019 19:45:00 4.9 C 6.35 g/m*3 4.9 C 0 km/h
527 26-01-2019 19:50:00 4.9 C 6.35 g/m*3 4.9 C 3.2 km/h
528 26-01-2019 19:55:00 4.9 C 6.35 g/m*3 4.9 C 1.6 km/h
529 26-01-2019 20:00:00 5 C 6.39 g/m*3 5 C 1.6 km/h
530 26-01-2019 20:05:00 5.1 C 6.43 g/m*3 2.84 C 9.7 km/h
531 26-01-2019 20:10:00 5.2 C 6.54 g/m*3 3.34 C 8.1 km/h
532 26-01-2019 20:15:00 5.3 C 6.52 g/m*3 3.46 C 8.1 km/h
533 26-01-2019 20:20:00 5.4 C 6.56 g/m*3 5.4 C 4.8 km/h
534 26-01-2019 20:25:00 5.4 C 6.56 g/m*3 5.4 C 0 km/h
535 26-01-2019 20:30:00 5.4 C 6.56 g/m*3 5.4 C 4.8 km/h
536 26-01-2019 20:35:00 5.3 C 6.52 g/m*3 3.94 C 6.4 km/h
537 26-01-2019 20:40:00 5.4 C 6.56 g/m*3 4.06 C 6.4 km/h
538 26-01-2019 20:45:00 5.4 C 6.56 g/m*3 5.4 C 3.2 km/h
539 26-01-2019 20:50:00 5.4 C 6.56 g/m*3 5.4 C 1.6 km/h
540 26-01-2019 20:55:00 5.5 C 6.6 g/m*3 5.5 C 4.8 km/h
541 26-01-2019 21:00:00 5.5 C 6.53 g/m*3 5.5 C 1.6 km/h
542 26-01-2019 21:05:00 5.5 C 6.53 g/m*3 5.5 C 1.6 km/h
543 26-01-2019 21:10:00 5.5 C 6.53 g/m*3 5.5 C 3.2 km/h
544 26-01-2019 21:15:00 5.5 C 6.53 g/m*3 3.32 C 9.7 km/h
545 26-01-2019 21:20:00 5.6 C 6.57 g/m*3 5.6 C 0 km/h
546 26-01-2019 21:25:00 5.6 C 6.57 g/m*3 5.6 C 3.2 km/h
547 26-01-2019 21:30:00 5.7 C 6.62 g/m*3 2.69 C 14.5 km/h
548 26-01-2019 21:35:00 5.7 C 6.62 g/m*3 5.7 C 1.6 km/h
549 26-01-2019 21:40:00 5.7 C 6.62 g/m*3 5.7 C 4.8 km/h
550 26-01-2019 21:45:00 5.7 C 6.62 g/m*3 5.7 C 3.2 km/h
Sensor: Nr:Datum:Temp:Abs-Feuchte:Windchill:Wind:
Aussen-T/F 551 26-01-2019 21:50:00 5.8 C 6.59 g/m*3 4.05 C 8.1 km/h
552 26-01-2019 21:55:00 5.8 C 6.59 g/m*3 4.52 C 6.4 km/h
553 26-01-2019 22:00:00 5.9 C 6.63 g/m*3 4.17 C 8.1 km/h
554 26-01-2019 22:05:00 5.9 C 6.63 g/m*3 5.9 C 0 km/h
555 26-01-2019 22:10:00 5.9 C 6.56 g/m*3 5.9 C 4.8 km/h
556 26-01-2019 22:15:00 5.9 C 6.56 g/m*3 5.9 C 3.2 km/h
557 26-01-2019 22:20:00 5.9 C 6.56 g/m*3 5.9 C 1.6 km/h
558 26-01-2019 22:25:00 6.1 C 6.65 g/m*3 4.86 C 6.4 km/h
559 26-01-2019 22:30:00 6.1 C 6.65 g/m*3 6.1 C 0 km/h
560 26-01-2019 22:35:00 6.1 C 6.65 g/m*3 4.86 C 6.4 km/h
561 26-01-2019 22:40:00 6.1 C 6.65 g/m*3 6.1 C 0 km/h
562 26-01-2019 22:45:00 6 C 6.6 g/m*3 6 C 0 km/h
563 26-01-2019 22:50:00 5.9 C 6.56 g/m*3 5.9 C 0 km/h
564 26-01-2019 22:55:00 5.9 C 6.56 g/m*3 5.9 C 1.6 km/h
565 26-01-2019 23:00:00 5.8 C 6.59 g/m*3 5.8 C 4.8 km/h
566 26-01-2019 23:05:00 5.8 C 6.59 g/m*3 5.8 C 0 km/h
567 26-01-2019 23:10:00 5.7 C 6.55 g/m*3 5.7 C 0 km/h
568 26-01-2019 23:15:00 5.6 C 6.5 g/m*3 5.6 C 0 km/h
569 26-01-2019 23:20:00 5.5 C 6.53 g/m*3 5.5 C 1.6 km/h
570 26-01-2019 23:25:00 5.5 C 6.53 g/m*3 5.5 C 1.6 km/h
571 26-01-2019 23:30:00 5.4 C 6.49 g/m*3 5.4 C 4.8 km/h
572 26-01-2019 23:35:00 5.4 C 6.49 g/m*3 5.4 C 3.2 km/h
573 26-01-2019 23:40:00 5.4 C 6.49 g/m*3 5.4 C 3.2 km/h
574 26-01-2019 23:45:00 5.4 C 6.56 g/m*3 5.4 C 3.2 km/h
575 26-01-2019 23:50:00 5.4 C 6.56 g/m*3 5.4 C 0 km/h
Sensor: Nr:Datum:Temp:Abs-Feuchte:Windchill:Wind:
Aussen-T/F 576 26-01-2019 23:55:00 5.5 C 6.6 g/m*3 5.5 C 1.6 km/h
577 27-01-2019 00:00:00 5.6 C 6.65 g/m*3 3.81 C 8.1 km/h
578 27-01-2019 00:05:00 5.7 C 6.69 g/m*3 2.95 C 12.9 km/h
579 27-01-2019 00:10:00 5.8 C 6.66 g/m*3 3.36 C 11.3 km/h
580 27-01-2019 00:15:00 5.8 C 6.66 g/m*3 5.8 C 3.2 km/h
581 27-01-2019 00:20:00 5.8 C 6.66 g/m*3 4.52 C 6.4 km/h
582 27-01-2019 00:25:00 5.9 C 6.71 g/m*3 3.19 C 12.9 km/h
583 27-01-2019 00:30:00 5.9 C 6.63 g/m*3 4.63 C 6.4 km/h
584 27-01-2019 00:35:00 5.9 C 6.63 g/m*3 5.9 C 0 km/h
585 27-01-2019 00:40:00 5.8 C 6.59 g/m*3 5.8 C 1.6 km/h
586 27-01-2019 00:45:00 5.8 C 6.59 g/m*3 5.8 C 3.2 km/h
587 27-01-2019 00:50:00 5.8 C 6.59 g/m*3 5.8 C 4.8 km/h
588 27-01-2019 00:55:00 5.8 C 6.59 g/m*3 5.8 C 0 km/h
589 27-01-2019 01:00:00 5.7 C 6.62 g/m*3 5.7 C 1.6 km/h
590 27-01-2019 01:05:00 5.7 C 6.62 g/m*3 5.7 C 3.2 km/h
591 27-01-2019 01:10:00 5.7 C 6.62 g/m*3 5.7 C 4.8 km/h
592 27-01-2019 01:15:00 5.8 C 6.66 g/m*3 5.8 C 1.6 km/h
593 27-01-2019 01:20:00 5.7 C 6.62 g/m*3 5.7 C 0 km/h
594 27-01-2019 01:25:00 5.7 C 6.62 g/m*3 5.7 C 0 km/h
595 27-01-2019 01:30:00 5.6 C 6.57 g/m*3 5.6 C 4.8 km/h
596 27-01-2019 01:35:00 5.7 C 6.62 g/m*3 3.56 C 9.7 km/h
597 27-01-2019 01:40:00 5.7 C 6.62 g/m*3 4.4 C 6.4 km/h
598 27-01-2019 01:45:00 5.7 C 6.62 g/m*3 3.93 C 8.1 km/h
599 27-01-2019 01:50:00 5.7 C 6.62 g/m*3 5.7 C 3.2 km/h
600 27-01-2019 01:55:00 5.7 C 6.62 g/m*3 5.7 C 3.2 km/h
Sensor: Nr:Datum:Temp:Abs-Feuchte:Windchill:Wind:
Aussen-T/F 601 27-01-2019 02:00:00 5.7 C 6.62 g/m*3 4.4 C 6.4 km/h
602 27-01-2019 02:05:00 5.8 C 6.66 g/m*3 5.8 C 4.8 km/h
603 27-01-2019 02:10:00 5.8 C 6.66 g/m*3 3.68 C 9.7 km/h
604 27-01-2019 02:15:00 5.8 C 6.66 g/m*3 5.8 C 4.8 km/h
605 27-01-2019 02:20:00 5.9 C 6.63 g/m*3 4.63 C 6.4 km/h
606 27-01-2019 02:25:00 5.9 C 6.63 g/m*3 5.9 C 4.8 km/h
607 27-01-2019 02:30:00 6 C 6.68 g/m*3 4.75 C 6.4 km/h
608 27-01-2019 02:35:00 6.1 C 6.72 g/m*3 4.4 C 8.1 km/h
609 27-01-2019 02:40:00 6.1 C 6.72 g/m*3 4.86 C 6.4 km/h
610 27-01-2019 02:45:00 6.1 C 6.72 g/m*3 6.1 C 4.8 km/h
611 27-01-2019 02:50:00 6.2 C 6.77 g/m*3 6.2 C 3.2 km/h
612 27-01-2019 02:55:00 6.3 C 6.74 g/m*3 6.3 C 4.8 km/h
613 27-01-2019 03:00:00 6.3 C 6.74 g/m*3 6.3 C 3.2 km/h
614 27-01-2019 03:05:00 6.3 C 6.74 g/m*3 4.64 C 8.1 km/h
615 27-01-2019 03:10:00 6.3 C 6.74 g/m*3 6.3 C 4.8 km/h
616 27-01-2019 03:15:00 6.3 C 6.74 g/m*3 3.96 C 11.3 km/h
617 27-01-2019 03:20:00 6.4 C 6.78 g/m*3 4.75 C 8.1 km/h
618 27-01-2019 03:25:00 6.4 C 6.78 g/m*3 5.21 C 6.4 km/h
619 27-01-2019 03:30:00 6.5 C 6.75 g/m*3 6.5 C 4.8 km/h
620 27-01-2019 03:35:00 6.5 C 6.75 g/m*3 6.5 C 4.8 km/h
621 27-01-2019 03:40:00 6.5 C 6.75 g/m*3 5.33 C 6.4 km/h
622 27-01-2019 03:45:00 6.5 C 6.82 g/m*3 6.5 C 3.2 km/h
623 27-01-2019 03:50:00 6.5 C 6.82 g/m*3 6.5 C 1.6 km/h
624 27-01-2019 03:55:00 6.5 C 6.75 g/m*3 5.33 C 6.4 km/h
625 27-01-2019 04:00:00 6.5 C 6.75 g/m*3 6.5 C 1.6 km/h
Sensor: Nr:Datum:Temp:Abs-Feuchte:Windchill:Wind:
Aussen-T/F 626 27-01-2019 04:05:00 6.4 C 6.71 g/m*3 4.39 C 9.7 km/h
627 27-01-2019 04:10:00 6.4 C 6.71 g/m*3 6.4 C 3.2 km/h
628 27-01-2019 04:15:00 6.4 C 6.78 g/m*3 6.4 C 3.2 km/h
629 27-01-2019 04:20:00 6.3 C 6.74 g/m*3 6.3 C 0 km/h
630 27-01-2019 04:25:00 6.2 C 6.69 g/m*3 6.2 C 3.2 km/h
631 27-01-2019 04:30:00 6.2 C 6.77 g/m*3 6.2 C 1.6 km/h
632 27-01-2019 04:35:00 6.1 C 6.65 g/m*3 6.1 C 3.2 km/h
633 27-01-2019 04:40:00 6 C 6.68 g/m*3 4.28 C 8.1 km/h
634 27-01-2019 04:45:00 5.9 C 6.63 g/m*3 4.17 C 8.1 km/h
635 27-01-2019 04:50:00 5.9 C 6.63 g/m*3 5.9 C 4.8 km/h
636 27-01-2019 04:55:00 5.9 C 6.63 g/m*3 4.63 C 6.4 km/h
637 27-01-2019 05:00:00 5.9 C 6.63 g/m*3 3.48 C 11.3 km/h
638 27-01-2019 05:05:00 5.9 C 6.63 g/m*3 5.9 C 3.2 km/h
639 27-01-2019 05:10:00 5.9 C 6.63 g/m*3 5.9 C 3.2 km/h
640 27-01-2019 05:15:00 5.9 C 6.63 g/m*3 5.9 C 4.8 km/h
641 27-01-2019 05:20:00 5.9 C 6.63 g/m*3 5.9 C 3.2 km/h
642 27-01-2019 05:25:00 5.9 C 6.63 g/m*3 4.17 C 8.1 km/h
643 27-01-2019 05:30:00 5.9 C 6.56 g/m*3 4.63 C 6.4 km/h
644 27-01-2019 05:35:00 5.9 C 6.56 g/m*3 5.9 C 4.8 km/h
645 27-01-2019 05:40:00 5.9 C 6.56 g/m*3 4.63 C 6.4 km/h
646 27-01-2019 05:45:00 5.9 C 6.56 g/m*3 5.9 C 1.6 km/h
647 27-01-2019 05:50:00 5.9 C 6.56 g/m*3 5.9 C 3.2 km/h
648 27-01-2019 05:55:00 5.9 C 6.56 g/m*3 4.63 C 6.4 km/h
649 27-01-2019 06:00:00 5.9 C 6.56 g/m*3 3.48 C 11.3 km/h
650 27-01-2019 06:05:00 6 C 6.6 g/m*3 6 C 1.6 km/h
Sensor: Nr:Datum:Temp:Abs-Feuchte:Windchill:Wind:
Aussen-T/F 651 27-01-2019 06:10:00 6.1 C 6.65 g/m*3 3.43 C 12.9 km/h
652 27-01-2019 06:15:00 6.1 C 6.58 g/m*3 6.1 C 1.6 km/h
653 27-01-2019 06:20:00 6.1 C 6.58 g/m*3 6.1 C 4.8 km/h
654 27-01-2019 06:25:00 6.1 C 6.58 g/m*3 3.18 C 14.5 km/h
655 27-01-2019 06:30:00 6.2 C 6.62 g/m*3 3.84 C 11.3 km/h
656 27-01-2019 06:35:00 6.2 C 6.62 g/m*3 6.2 C 3.2 km/h
657 27-01-2019 06:40:00 6.2 C 6.62 g/m*3 6.2 C 1.6 km/h
658 27-01-2019 06:45:00 6.2 C 6.62 g/m*3 6.2 C 3.2 km/h
659 27-01-2019 06:50:00 6.2 C 6.69 g/m*3 4.52 C 8.1 km/h
660 27-01-2019 06:55:00 6.3 C 6.74 g/m*3 5.1 C 6.4 km/h
661 27-01-2019 07:00:00 6.4 C 6.78 g/m*3 4.08 C 11.3 km/h
662 27-01-2019 07:05:00 6.4 C 6.71 g/m*3 6.4 C 4.8 km/h
663 27-01-2019 07:10:00 6.4 C 6.71 g/m*3 6.4 C 1.6 km/h
664 27-01-2019 07:15:00 6.5 C 6.82 g/m*3 6.5 C 4.8 km/h
665 27-01-2019 07:20:00 6.5 C 6.82 g/m*3 6.5 C 3.2 km/h
666 27-01-2019 07:25:00 6.6 C 6.87 g/m*3 5.44 C 6.4 km/h
667 27-01-2019 07:30:00 6.6 C 6.87 g/m*3 5.44 C 6.4 km/h
668 27-01-2019 07:35:00 6.6 C 6.87 g/m*3 6.6 C 3.2 km/h
669 27-01-2019 07:40:00 6.6 C 6.87 g/m*3 4.99 C 8.1 km/h
670 27-01-2019 07:45:00 6.6 C 6.87 g/m*3 6.6 C 1.6 km/h
671 27-01-2019 07:50:00 6.6 C 6.87 g/m*3 6.6 C 4.8 km/h
672 27-01-2019 07:55:00 6.4 C 6.78 g/m*3 6.4 C 3.2 km/h
673 27-01-2019 08:00:00 6.4 C 6.78 g/m*3 5.21 C 6.4 km/h
674 27-01-2019 08:05:00 6.4 C 6.78 g/m*3 6.4 C 3.2 km/h
675 27-01-2019 08:10:00 6.6 C 6.87 g/m*3 4.63 C 9.7 km/h
Sensor: Nr:Datum:Temp:Abs-Feuchte:Windchill:Wind:
Aussen-T/F 676 27-01-2019 08:15:00 6.6 C 6.79 g/m*3 6.6 C 1.6 km/h
677 27-01-2019 08:20:00 6.6 C 6.79 g/m*3 5.44 C 6.4 km/h
678 27-01-2019 08:25:00 6.6 C 6.79 g/m*3 6.6 C 4.8 km/h
679 27-01-2019 08:30:00 6.6 C 6.79 g/m*3 6.6 C 3.2 km/h
680 27-01-2019 08:35:00 6.6 C 6.79 g/m*3 6.6 C 3.2 km/h
681 27-01-2019 08:40:00 6.5 C 6.82 g/m*3 6.5 C 1.6 km/h
682 27-01-2019 08:45:00 6.4 C 6.78 g/m*3 4.75 C 8.1 km/h
683 27-01-2019 08:50:00 6.4 C 6.85 g/m*3 3.8 C 12.9 km/h
684 27-01-2019 08:55:00 6.3 C 6.81 g/m*3 3.96 C 11.3 km/h
685 27-01-2019 09:00:00 6.3 C 6.81 g/m*3 5.1 C 6.4 km/h
686 27-01-2019 09:05:00 6.2 C 6.77 g/m*3 4.98 C 6.4 km/h
687 27-01-2019 09:10:00 6.2 C 6.84 g/m*3 3.07 C 16.1 km/h
688 27-01-2019 09:15:00 6.1 C 6.79 g/m*3 2.95 C 16.1 km/h
689 27-01-2019 09:20:00 6.1 C 6.79 g/m*3 4.86 C 6.4 km/h
690 27-01-2019 09:25:00 6 C 6.75 g/m*3 4.75 C 6.4 km/h
691 27-01-2019 09:30:00 5.9 C 6.71 g/m*3 5.9 C 0 km/h
692 27-01-2019 09:35:00 5.9 C 6.71 g/m*3 5.9 C 1.6 km/h
693 27-01-2019 09:40:00 5.9 C 6.71 g/m*3 5.9 C 0 km/h
694 27-01-2019 09:45:00 5.8 C 6.73 g/m*3 5.8 C 0 km/h
695 27-01-2019 09:50:00 5.8 C 6.73 g/m*3 5.8 C 3.2 km/h
696 27-01-2019 09:55:00 5.7 C 6.69 g/m*3 5.7 C 3.2 km/h
697 27-01-2019 10:00:00 5.7 C 6.69 g/m*3 5.7 C 1.6 km/h
698 27-01-2019 10:05:00 5.7 C 6.69 g/m*3 5.7 C 1.6 km/h
699 27-01-2019 10:10:00 5.7 C 6.69 g/m*3 5.7 C 0 km/h
700 27-01-2019 10:15:00 5.6 C 6.65 g/m*3 5.6 C 4.8 km/h
Sensor: Nr:Datum:Temp:Abs-Feuchte:Windchill:Wind:
Aussen-T/F 701 27-01-2019 10:20:00 5.5 C 6.67 g/m*3 5.5 C 1.6 km/h
702 27-01-2019 10:25:00 5.4 C 6.56 g/m*3 5.4 C 3.2 km/h
703 27-01-2019 10:30:00 5.4 C 6.63 g/m*3 5.4 C 3.2 km/h
704 27-01-2019 10:35:00 5.6 C 6.72 g/m*3 5.6 C 3.2 km/h
705 27-01-2019 10:40:00 5.8 C 6.81 g/m*3 5.8 C 3.2 km/h
706 27-01-2019 10:45:00 6 C 6.97 g/m*3 3.92 C 9.7 km/h
707 27-01-2019 10:50:00 6.2 C 6.99 g/m*3 4.98 C 6.4 km/h
708 27-01-2019 10:55:00 6.3 C 7.03 g/m*3 3.68 C 12.9 km/h
709 27-01-2019 11:00:00 6.4 C 7.08 g/m*3 4.75 C 8.1 km/h
710 27-01-2019 11:05:00 6.6 C 7.1 g/m*3 4.99 C 8.1 km/h
711 27-01-2019 11:10:00 6.7 C 7.14 g/m*3 5.56 C 6.4 km/h
712 27-01-2019 11:15:00 6.8 C 7.11 g/m*3 4.56 C 11.3 km/h
713 27-01-2019 11:20:00 6.9 C 7.08 g/m*3 4.41 C 12.9 km/h
714 27-01-2019 11:25:00 7.1 C 7.18 g/m*3 5.23 C 9.7 km/h
715 27-01-2019 11:30:00 7.2 C 7.14 g/m*3 4.77 C 12.9 km/h
716 27-01-2019 11:35:00 7.2 C 7.06 g/m*3 4.11 C 17.7 km/h
717 27-01-2019 11:40:00 7.3 C 7.11 g/m*3 7.3 C 4.8 km/h
718 27-01-2019 11:45:00 7.3 C 7.11 g/m*3 5.16 C 11.3 km/h
719 27-01-2019 11:50:00 7.4 C 7.16 g/m*3 5.93 C 8.1 km/h
720 27-01-2019 11:55:00 7.4 C 7.16 g/m*3 5.28 C 11.3 km/h
721 27-01-2019 12:00:00 7.6 C 7.25 g/m*3 5.82 C 9.7 km/h
722 27-01-2019 12:05:00 7.6 C 7.17 g/m*3 6.6 C 6.4 km/h
723 27-01-2019 12:10:00 7.7 C 7.22 g/m*3 6.71 C 6.4 km/h
724 27-01-2019 12:15:00 7.7 C 7.14 g/m*3 6.28 C 8.1 km/h
725 27-01-2019 12:20:00 7.7 C 7.14 g/m*3 5.94 C 9.7 km/h
Sensor: Nr:Datum:Temp:Abs-Feuchte:Windchill:Wind:
Aussen-T/F 726 27-01-2019 12:25:00 7.7 C 7.05 g/m*3 5.94 C 9.7 km/h
727 27-01-2019 12:30:00 7.7 C 6.97 g/m*3 5.15 C 14.5 km/h
728 27-01-2019 12:35:00 7.7 C 6.97 g/m*3 5.94 C 9.7 km/h
729 27-01-2019 12:40:00 7.8 C 7.1 g/m*3 7.8 C 1.6 km/h
730 27-01-2019 12:45:00 7.7 C 7.05 g/m*3 7.7 C 4.8 km/h
731 27-01-2019 12:50:00 7.7 C 6.97 g/m*3 5.94 C 9.7 km/h
732 27-01-2019 12:55:00 7.7 C 6.97 g/m*3 5.65 C 11.3 km/h
733 27-01-2019 13:00:00 7.6 C 6.93 g/m*3 5.53 C 11.3 km/h
734 27-01-2019 13:05:00 7.6 C 6.93 g/m*3 5.53 C 11.3 km/h
735 27-01-2019 13:10:00 7.6 C 6.93 g/m*3 6.16 C 8.1 km/h
736 27-01-2019 13:15:00 7.6 C 7.01 g/m*3 5.82 C 9.7 km/h
737 27-01-2019 13:20:00 7.6 C 7.01 g/m*3 5.26 C 12.9 km/h
738 27-01-2019 13:25:00 7.6 C 7.01 g/m*3 5.02 C 14.5 km/h
739 27-01-2019 13:30:00 7.7 C 7.05 g/m*3 5.65 C 11.3 km/h
740 27-01-2019 13:35:00 7.8 C 7.18 g/m*3 6.4 C 8.1 km/h
741 27-01-2019 13:40:00 7.8 C 7.1 g/m*3 6.4 C 8.1 km/h
742 27-01-2019 13:45:00 8 C 7.19 g/m*3 6.3 C 9.7 km/h
743 27-01-2019 13:50:00 8.1 C 7.16 g/m*3 6.42 C 9.7 km/h
744 27-01-2019 13:55:00 8.1 C 7.16 g/m*3 6.42 C 9.7 km/h
745 27-01-2019 14:00:00 8.1 C 7.16 g/m*3 7.17 C 6.4 km/h
746 27-01-2019 14:05:00 8.2 C 7.12 g/m*3 6.87 C 8.1 km/h
747 27-01-2019 14:10:00 8.2 C 7.12 g/m*3 5.55 C 16.1 km/h
748 27-01-2019 14:15:00 8.3 C 7.08 g/m*3 7.41 C 6.4 km/h
749 27-01-2019 14:20:00 8.3 C 7.08 g/m*3 6.66 C 9.7 km/h
750 27-01-2019 14:25:00 8.2 C 7.03 g/m*3 5.55 C 16.1 km/h
Sensor: Nr:Datum:Temp:Abs-Feuchte:Windchill:Wind:
Aussen-T/F 751 27-01-2019 14:30:00 8.1 C 6.99 g/m*3 5.43 C 16.1 km/h
752 27-01-2019 14:35:00 8.1 C 7.07 g/m*3 7.17 C 6.4 km/h
753 27-01-2019 14:40:00 8.2 C 7.12 g/m*3 6.87 C 8.1 km/h
754 27-01-2019 14:45:00 8.2 C 7.12 g/m*3 6.87 C 8.1 km/h
755 27-01-2019 14:50:00 8.1 C 7.07 g/m*3 6.75 C 8.1 km/h
756 27-01-2019 14:55:00 8.1 C 7.07 g/m*3 6.75 C 8.1 km/h
757 27-01-2019 15:00:00 8 C 7.03 g/m*3 6.01 C 11.3 km/h
758 27-01-2019 15:05:00 7.9 C 7.06 g/m*3 5.89 C 11.3 km/h
759 27-01-2019 15:10:00 7.9 C 7.06 g/m*3 7.9 C 4.8 km/h
760 27-01-2019 15:15:00 7.9 C 7.06 g/m*3 6.94 C 6.4 km/h
761 27-01-2019 15:20:00 7.9 C 7.15 g/m*3 6.52 C 8.1 km/h
762 27-01-2019 15:25:00 7.8 C 7.1 g/m*3 6.83 C 6.4 km/h
763 27-01-2019 15:30:00 7.8 C 7.18 g/m*3 7.8 C 3.2 km/h
764 27-01-2019 15:35:00 7.7 C 7.22 g/m*3 6.71 C 6.4 km/h
765 27-01-2019 15:40:00 7.6 C 7.17 g/m*3 7.6 C 1.6 km/h
766 27-01-2019 15:45:00 7.5 C 7.2 g/m*3 7.5 C 0 km/h
767 27-01-2019 15:50:00 7.4 C 7.16 g/m*3 7.4 C 3.2 km/h
768 27-01-2019 15:55:00 7.4 C 7.16 g/m*3 7.4 C 0 km/h
769 27-01-2019 16:00:00 7.4 C 7.16 g/m*3 7.4 C 0 km/h
770 27-01-2019 16:05:00 7.3 C 7.11 g/m*3 7.3 C 1.6 km/h
771 27-01-2019 16:10:00 7.3 C 7.19 g/m*3 7.3 C 3.2 km/h
772 27-01-2019 16:15:00 7.2 C 7.06 g/m*3 5.35 C 9.7 km/h
773 27-01-2019 16:20:00 7.1 C 6.94 g/m*3 4.65 C 12.9 km/h
774 27-01-2019 16:25:00 7.1 C 6.94 g/m*3 4.92 C 11.3 km/h
775 27-01-2019 16:30:00 7 C 6.9 g/m*3 4.29 C 14.5 km/h
Sensor: Nr:Datum:Temp:Abs-Feuchte:Windchill:Wind:
Aussen-T/F 776 27-01-2019 16:35:00 7 C 6.82 g/m*3 4.53 C 12.9 km/h
777 27-01-2019 16:40:00 6.9 C 6.77 g/m*3 5.34 C 8.1 km/h
778 27-01-2019 16:45:00 6.9 C 6.77 g/m*3 3.94 C 16.1 km/h
779 27-01-2019 16:50:00 6.8 C 6.73 g/m*3 4.04 C 14.5 km/h
780 27-01-2019 16:55:00 6.8 C 6.73 g/m*3 4.87 C 9.7 km/h
781 27-01-2019 17:00:00 6.8 C 6.73 g/m*3 6.8 C 4.8 km/h
782 27-01-2019 17:05:00 6.7 C 6.69 g/m*3 5.11 C 8.1 km/h
783 27-01-2019 17:10:00 6.7 C 6.69 g/m*3 4.75 C 9.7 km/h
784 27-01-2019 17:15:00 6.6 C 6.64 g/m*3 4.99 C 8.1 km/h
785 27-01-2019 17:20:00 6.6 C 6.64 g/m*3 3.36 C 17.7 km/h
786 27-01-2019 17:25:00 6.6 C 6.64 g/m*3 4.32 C 11.3 km/h
787 27-01-2019 17:30:00 6.6 C 6.64 g/m*3 3.57 C 16.1 km/h
788 27-01-2019 17:35:00 6.6 C 6.64 g/m*3 3.17 C 19.3 km/h
789 27-01-2019 17:40:00 6.6 C 6.64 g/m*3 3.17 C 19.3 km/h
790 27-01-2019 17:45:00 6.6 C 6.57 g/m*3 3.57 C 16.1 km/h
791 27-01-2019 17:50:00 6.5 C 6.52 g/m*3 2.53 C 24.1 km/h
792 27-01-2019 17:55:00 6.3 C 6.44 g/m*3 2.27 C 24.1 km/h
793 27-01-2019 18:00:00 6.1 C 6.43 g/m*3 3.72 C 11.3 km/h
794 27-01-2019 18:05:00 6 C 6.46 g/m*3 4.28 C 8.1 km/h
795 27-01-2019 18:10:00 5.9 C 6.42 g/m*3 3.8 C 9.7 km/h
796 27-01-2019 18:15:00 5.8 C 6.38 g/m*3 4.05 C 8.1 km/h
797 27-01-2019 18:20:00 5.7 C 6.4 g/m*3 3.23 C 11.3 km/h
798 27-01-2019 18:25:00 5.6 C 6.36 g/m*3 3.81 C 8.1 km/h
799 27-01-2019 18:30:00 5.4 C 6.28 g/m*3 2.32 C 14.5 km/h
800 27-01-2019 18:35:00 5.3 C 6.24 g/m*3 1.53 C 19.3 km/h
Sensor: Nr:Datum:Temp:Abs-Feuchte:Windchill:Wind:
Aussen-T/F 801 27-01-2019 18:40:00 5.2 C 6.2 g/m*3 3.82 C 6.4 km/h
802 27-01-2019 18:45:00 5.1 C 6.16 g/m*3 1.71 C 16.1 km/h
803 27-01-2019 18:50:00 5 C 6.12 g/m*3 3.11 C 8.1 km/h
804 27-01-2019 18:55:00 4.9 C 6.01 g/m*3 2.61 C 9.7 km/h
805 27-01-2019 19:00:00 4.8 C 6.04 g/m*3 3.36 C 6.4 km/h
806 27-01-2019 19:05:00 4.8 C 6.04 g/m*3 2.87 C 8.1 km/h
807 27-01-2019 19:10:00 4.7 C 6 g/m*3 2.03 C 11.3 km/h
808 27-01-2019 19:15:00 4.6 C 5.96 g/m*3 1.61 C 12.9 km/h
809 27-01-2019 19:20:00 4.6 C 5.96 g/m*3 3.13 C 6.4 km/h
810 27-01-2019 19:25:00 4.5 C 5.98 g/m*3 4.5 C 3.2 km/h
811 27-01-2019 19:30:00 4.5 C 5.92 g/m*3 1.79 C 11.3 km/h
812 27-01-2019 19:35:00 4.4 C 5.94 g/m*3 4.4 C 1.6 km/h
813 27-01-2019 19:40:00 4.4 C 5.94 g/m*3 4.4 C 4.8 km/h
814 27-01-2019 19:45:00 4.4 C 5.94 g/m*3 4.4 C 3.2 km/h
815 27-01-2019 19:50:00 4.4 C 5.94 g/m*3 4.4 C 1.6 km/h
816 27-01-2019 19:55:00 4.3 C 5.9 g/m*3 2.78 C 6.4 km/h
817 27-01-2019 20:00:00 4.2 C 5.86 g/m*3 4.2 C 4.8 km/h
818 27-01-2019 20:05:00 4.2 C 5.86 g/m*3 2.17 C 8.1 km/h
819 27-01-2019 20:10:00 4 C 5.79 g/m*3 0.88 C 12.9 km/h
820 27-01-2019 20:15:00 3.9 C 5.68 g/m*3 1.82 C 8.1 km/h
821 27-01-2019 20:20:00 3.9 C 5.68 g/m*3 1.82 C 8.1 km/h
822 27-01-2019 20:25:00 3.8 C 5.65 g/m*3 2.21 C 6.4 km/h
823 27-01-2019 20:30:00 3.8 C 5.58 g/m*3 0.63 C 12.9 km/h
824 27-01-2019 20:35:00 3.8 C 5.52 g/m*3 0.94 C 11.3 km/h
825 27-01-2019 20:40:00 3.8 C 5.46 g/m*3 1.29 C 9.7 km/h
Sensor: Nr:Datum:Temp:Abs-Feuchte:Windchill:Wind:
Aussen-T/F 826 27-01-2019 20:45:00 3.8 C 5.46 g/m*3 2.21 C 6.4 km/h
827 27-01-2019 20:50:00 3.8 C 5.52 g/m*3 3.8 C 3.2 km/h
828 27-01-2019 20:55:00 3.7 C 5.42 g/m*3 1.58 C 8.1 km/h
829 27-01-2019 21:00:00 3.7 C 5.42 g/m*3 3.7 C 3.2 km/h
830 27-01-2019 21:05:00 3.7 C 5.48 g/m*3 3.7 C 3.2 km/h
831 27-01-2019 21:10:00 3.7 C 5.48 g/m*3 3.7 C 3.2 km/h
832 27-01-2019 21:15:00 3.6 C 5.45 g/m*3 3.6 C 1.6 km/h
833 27-01-2019 21:20:00 3.6 C 5.51 g/m*3 3.6 C 1.6 km/h
834 27-01-2019 21:25:00 3.4 C 5.44 g/m*3 3.4 C 0 km/h
835 27-01-2019 21:30:00 3.3 C 5.4 g/m*3 3.3 C 4.8 km/h
836 27-01-2019 21:35:00 3.3 C 5.4 g/m*3 1.11 C 8.1 km/h
837 27-01-2019 21:40:00 3.3 C 5.4 g/m*3 0.7 C 9.7 km/h
838 27-01-2019 21:45:00 3.3 C 5.46 g/m*3 0.7 C 9.7 km/h
839 27-01-2019 21:50:00 3.3 C 5.46 g/m*3 1.11 C 8.1 km/h
840 27-01-2019 21:55:00 3.3 C 5.46 g/m*3 3.3 C 3.2 km/h
841 27-01-2019 22:00:00 3.3 C 5.46 g/m*3 1.63 C 6.4 km/h
842 27-01-2019 22:05:00 3.3 C 5.46 g/m*3 1.63 C 6.4 km/h
843 27-01-2019 22:10:00 3.3 C 5.46 g/m*3 1.63 C 6.4 km/h
844 27-01-2019 22:15:00 3.2 C 5.42 g/m*3 1.51 C 6.4 km/h
845 27-01-2019 22:20:00 3.2 C 5.42 g/m*3 3.2 C 4.8 km/h
846 27-01-2019 22:25:00 3.2 C 5.42 g/m*3 3.2 C 4.8 km/h
847 27-01-2019 22:30:00 3.2 C 5.42 g/m*3 0.99 C 8.1 km/h
848 27-01-2019 22:35:00 3.3 C 5.46 g/m*3 3.3 C 4.8 km/h
849 27-01-2019 22:40:00 3.3 C 5.46 g/m*3 3.3 C 3.2 km/h
850 27-01-2019 22:45:00 3.2 C 5.36 g/m*3 1.51 C 6.4 km/h
Sensor: Nr:Datum:Temp:Abs-Feuchte:Windchill:Wind:
Aussen-T/F 851 27-01-2019 22:50:00 3.3 C 5.4 g/m*3 -0.76 C 17.7 km/h
852 27-01-2019 22:55:00 3.3 C 5.4 g/m*3 0.7 C 9.7 km/h
853 27-01-2019 23:00:00 3.4 C 5.37 g/m*3 0.46 C 11.3 km/h
854 27-01-2019 23:05:00 3.5 C 5.41 g/m*3 0.58 C 11.3 km/h
855 27-01-2019 23:10:00 3.4 C 5.37 g/m*3 0.82 C 9.7 km/h
856 27-01-2019 23:15:00 3.4 C 5.31 g/m*3 0.82 C 9.7 km/h
857 27-01-2019 23:20:00 3.3 C 5.34 g/m*3 0.7 C 9.7 km/h
858 27-01-2019 23:25:00 3.2 C 5.3 g/m*3 3.2 C 4.8 km/h
859 27-01-2019 23:30:00 3.1 C 5.27 g/m*3 1.4 C 6.4 km/h
860 27-01-2019 23:35:00 2.9 C 5.26 g/m*3 -0.14 C 11.3 km/h
861 27-01-2019 23:40:00 2.9 C 5.26 g/m*3 0.64 C 8.1 km/h
862 27-01-2019 23:45:00 3 C 5.29 g/m*3 0.76 C 8.1 km/h
863 27-01-2019 23:50:00 2.9 C 5.26 g/m*3 0.64 C 8.1 km/h
864 27-01-2019 23:55:00 2.8 C 5.22 g/m*3 2.8 C 4.8 km/h

Legende:
   Min
   Max


Maximal/Minimal-Werte vom 25.01.2019 - 27.01.2019

Sensor Min Max Avg
Temp
(Aussen-T/F)
-2.4 °C
25-01-2019  00:00:00
8.3 °C
27-01-2019  14:15:00
3.57 °C
Abs-Feuchte
(Aussen-T/F)
3.52 g/m*3
25-01-2019  00:35:00
7.25 g/m*3
27-01-2019  12:00:00
5.66 g/m*3
Windchill
(Aussen-T/F)
-4.03 C
26-01-2019  00:25:00
7.9 C
27-01-2019  15:10:00
1.69 C

Die Daten stammen von einer Davis Vantage Pro 2 Wetter-Station und werden unter Linux mit der Software wview2wettercgi und aufbereitet. Alle Angaben erfolgen ohne Gewähr für ihre Vollständigkeit oder Richtigkeit.
Kontakt: Rainer Krienke krienke@uni-koblenz.de . Meine Webseiten an der Uni Koblenz oder privat.
Version: $Revision: 0.78 $